User: anonymous   Login
Location: New Canada
(47.1017°N, 68.5042°W)
Time: 04:23:16
(UTC+00:00)
Language:

DX 1 - Orbit

View from above orbital plane
View from above orbital plane
View from above satellite
View from above satellite

Ground track
Ground track

The orbit data is extracted from the following two-line orbital elements,

1 40071U 14037C   24103.84860778  .00002087  00000-0  25504-3 0  9991
2 40071  98.3365  13.3776 0007548 345.4021  14.6973 14.84418155527946
Epoch (UTC): 12 April 2024 20:21:59
Eccentricity: 0.0007548
inclination: 98.3365°
perigee height: 610 km
apogee height: 620 km
right ascension of ascending node: 13.3776°
argument of perigee: 345.4021°
revolutions per day: 14.84418155
mean anomaly at epoch: 14.6973°
orbit number at epoch: 52794

The dashed part of the orbit path shows where the satellite is in the earth's shadow,  

DLR